CW5752 Weather Reports


Display with metric or nautical units.
time (UTC)temp
F
wind
direction
speed
MPH
gust
MPH
rain 1hr
in
rain 24hr
in
rain mn
in
humidity
%
barometer
mb
20260505213522 52 355 1.0 7.0 0.01 0.72 0.72 92 1008.4
20260505212602 52 330 1.0 6.0 0.01 0.72 0.72 92 1008.2
20260505211521 52 330 1.0 6.0 0.02 0.72 0.72 92 1008.1
20260505210536 52 349 4.0 12.0 0.02 0.72 0.72 92 1007.9
20260505205541 52 348 4.0 11.0 0.02 0.72 0.72 92 1007.9
20260505204541 53 333 3.0 9.0 0.01 0.71 0.71 92 1008.1
20260505203521 53 331 2.0 11.0 0.01 0.71 0.71 92 1008.0
20260505202521 54 346 2.0 6.0 0.01 0.71 0.71 93 1007.9
20260505201521 54 343 1.0 6.0 0.00 0.70 0.70 93 1007.9
20260505200516 54 321 2.0 6.0 0.01 0.70 0.70 93 1007.9
20260505195536 54 332 2.0 5.0 0.02 0.70 0.70 92 1007.8
20260505194521 54 304 1.0 4.0 0.07 0.70 0.70 93 1007.8
20260505193521 54 299 1.0 4.0 0.07 0.70 0.70 93 1007.8
20260505192521 54 294 0.0 2.0 0.07 0.70 0.70 93 1007.8
20260505191521 54 294 0.0 3.0 0.07 0.70 0.70 92 1007.8
20260505190521 54 314 0.0 2.0 0.06 0.69 0.69 92 1007.8
20260505185516 54 318 0.0 4.0 0.05 0.68 0.68 92 1007.6
20260505184521 54 329 1.0 5.0 0.00 0.63 0.63 92 1007.8
20260505183521 55 328 1.0 4.0 0.00 0.63 0.63 92 1007.8
20260505182521 55 333 1.0 4.0 0.00 0.63 0.63 92 1007.8
20260505181521 54 337 0.0 5.0 0.00 0.63 0.63 91 1007.7
20260505180521 54 347 1.0 5.0 0.00 0.63 0.63 90 1007.9
20260505175521 55 346 1.0 6.0 0.00 0.63 0.63 91 1008.0
20260505174516 55 350 2.0 5.0 0.00 0.63 0.63 91 1008.2
20260505173521 55 332 1.0 5.0 0.00 0.63 0.63 91 1008.2
20260505172521 55 334 1.0 5.0 0.00 0.63 0.63 91 1008.0
20260505171521 55 333 2.0 3.0 0.00 0.63 0.63 91 1008.1
20260505170541 55 333 0.0 3.0 0.00 0.63 0.63 91 1008.1
20260505165522 55 333 0.0 4.0 0.00 0.63 0.63 91 1007.9
20260505164517 55 332 1.0 3.0 0.00 0.63 0.63 91 1007.9
20260505163516 56 332 0.0 3.0 0.00 0.63 0.63 91 1008.1
20260505162521 56 336 1.0 4.0 0.00 0.63 0.63 91 1008.0
20260505161521 56 337 0.0 4.0 0.00 0.63 0.63 91 1007.9
20260505160541 56 337 0.0 5.0 0.00 0.63 0.63 90 1007.9
20260505152521 60 184 0.0 3.0 0.00 0.63 0.63 91 1007.6
20260505151521 60 183 0.0 2.0 0.00 0.63 0.63 91 1007.8
20260505150521 60 183 0.0 3.0 0.01 0.63 0.63 91 1007.8
20260505140521 60 219 0.0 3.0 0.36 0.62 0.62 91 1007.8
20260505124521 64 185 1.0 5.0 0.00 0.00 0.00 67 1007.0
20260505123521 64 178 0.0 2.0 0.00 0.00 0.00 68 1006.4
20260505122521 64 0.0 0.0 0.00 0.00 0.00 67 1006.3
20260505121516 64 0.0 0.0 0.00 0.00 0.00 68 1006.1
20260505120521 64 0.0 0.0 0.00 0.00 0.00 67 1006.0
20260505115521 64 182 0.0 1.0 0.00 0.00 0.00 66 1006.1
20260505114521 64 182 0.0 2.0 0.00 0.00 0.00 66 1006.2
20260505113521 65 182 0.0 4.0 0.00 0.00 0.00 65 1006.4
20260505112522 65 177 0.0 4.0 0.00 0.00 0.00 65 1006.3
20260505111521 65 177 1.0 3.0 0.00 0.00 0.00 63 1006.4
20260505110516 65 177 0.0 3.0 0.00 0.00 0.00 63 1006.4
20260505101521 65 188 0.0 3.0 0.00 0.00 0.00 62 1006.0
20260505100516 66 197 0.0 6.0 0.00 0.00 0.00 61 1006.1
20260505095516 66 161 1.0 6.0 0.00 0.00 0.00 62 1006.1
20260505094521 66 183 2.0 8.0 0.00 0.00 0.00 62 1006.1
20260505093541 66 187 2.0 10.0 0.00 0.00 0.00 61 1006.1
20260505092521 66 167 2.0 10.0 0.00 0.00 0.00 61 1006.1
20260505091519 66 152 2.0 12.0 0.00 0.00 0.00 60 1006.1
20260505090521 66 180 2.0 7.0 0.00 0.00 0.00 60 1006.3
20260505085516 67 184 2.0 7.0 0.00 0.00 0.00 60 1006.4
20260505084521 67 180 2.0 7.0 0.00 0.00 0.00 60 1006.6
20260505083521 67 185 2.0 8.0 0.00 0.00 0.00 59 1006.7
20260505082521 67 188 2.0 9.0 0.00 0.00 0.00 59 1006.3
20260505081521 67 166 1.0 8.0 0.00 0.00 0.00 59 1006.3
20260505080521 67 185 3.0 10.0 0.00 0.00 0.00 59 1006.6
20260505075516 67 181 3.0 10.0 0.00 0.00 0.00 59 1006.6
20260505074516 67 189 4.0 10.0 0.00 0.00 0.00 59 1006.4
20260505073541 67 189 3.0 11.0 0.00 0.00 0.00 58 1006.2
20260505072521 67 182 3.0 11.0 0.00 0.00 0.00 58 1006.1
20260505071521 68 181 3.0 11.0 0.00 0.00 0.00 57 1006.1
20260505070541 68 185 4.0 15.0 0.00 0.00 0.00 56 1006.1
20260505065521 68 186 4.0 15.0 0.00 0.00 0.00 55 1006.3
20260505064536 68 186 5.0 14.0 0.00 0.00 0.00 55 1006.4
20260505063522 69 187 5.0 10.0 0.00 0.00 0.00 55 1006.3
20260505062521 69 186 4.0 12.0 0.00 0.00 0.00 55 1006.2
20260505061521 69 188 4.0 12.0 0.00 0.00 0.00 54 1006.2
20260505060541 69 188 5.0 16.0 0.00 0.00 0.00 54 1006.2
20260505055521 70 187 6.0 17.0 0.00 0.00 0.00 53 1006.1
20260505054521 70 189 6.0 16.0 0.00 0.00 0.00 53 1006.0
20260505053516 70 179 5.0 13.0 0.00 0.00 0.00 53 1006.0
20260505052521 70 187 5.0 12.0 0.00 0.00 0.00 53 1005.8
20260505051521 70 180 4.0 16.0 0.00 0.00 0.00 53 1005.6
20260505050521 70 183 6.0 9.0 0.00 0.00 0.00 53 1006.0
20260505041516 71 184 5.0 17.0 0.00 0.00 0.00 52 1006.0
20260505040522 71 185 4.0 12.0 0.00 0.00 0.00 52 1006.0
20260505035522 71 178 5.0 10.0 0.00 0.00 0.00 52 1005.9
20260505034521 71 183 5.0 14.0 0.00 0.00 0.00 52 1006.0
20260505033521 71 177 3.0 8.0 0.00 0.00 0.00 52 1005.9
20260505032522 71 181 4.0 17.0 0.00 0.00 0.00 51 1005.9
20260505031522 71 158 3.0 10.0 0.00 0.00 0.00 52 1005.8
20260505030557 71 173 3.0 16.0 0.00 0.00 0.00 51 1005.6
20260505025521 71 180 3.0 11.0 0.00 0.00 0.00 51 1005.6
20260505024521 71 179 3.0 10.0 0.00 0.00 0.00 51 1005.4
20260505023521 72 165 3.0 11.0 0.00 0.00 0.00 50 1005.5
20260505022522 72 180 2.0 11.0 0.00 0.00 0.00 50 1005.6
20260505021542 72 182 3.0 11.0 0.00 0.00 0.00 49 1005.4
20260505020517 72 176 3.0 9.0 0.00 0.00 0.00 49 1005.3
20260505015516 72 173 3.0 12.0 0.00 0.00 0.00 49 1005.0
20260505014542 73 170 4.0 12.0 0.00 0.00 0.00 48 1005.0
20260505013541 73 176 3.0 9.0 0.00 0.00 0.00 48 1004.9
20260505012522 73 180 5.0 16.0 0.00 0.00 0.00 47 1004.9
20260505011521 73 182 2.0 9.0 0.00 0.00 0.00 48 1004.9
20260505010522 74 176 3.0 10.0 0.00 0.00 0.00 46 1004.8
20260505005536 74 175 5.0 12.0 0.00 0.00 0.00 45 1004.8
20260505004522 74 182 4.0 20.0 0.00 0.00 0.00 45 1004.5
20260505003522 75 182 4.0 13.0 0.00 0.00 0.00 45 1004.3
20260505002521 75 184 5.0 17.0 0.00 0.00 0.00 44 1004.3
20260505001521 75 181 4.0 17.0 0.00 0.00 0.00 44 1004.2
20260505000541 76 182 4.0 18.0 0.00 0.00 0.00 44 1004.3
20260504235516 76 186 4.0 11.0 0.00 0.00 0.00 43 1004.3
20260504234516 77 167 4.0 13.0 0.00 0.00 0.00 43 1004.6
20260504233541 77 185 4.0 11.0 0.00 0.00 0.00 43 1004.7
20260504232522 76 178 3.0 11.0 0.00 0.00 0.00 44 1004.8
20260504231521 77 185 3.0 13.0 0.00 0.00 0.00 43 1005.0
20260504230522 78 180 4.0 13.0 0.00 0.00 0.00 41 1004.9
20260504225546 78 162 4.0 13.0 0.00 0.00 0.00 42 1004.8
20260504224516 79 174 4.0 11.0 0.00 0.00 0.00 41 1004.9
20260504223521 77 171 2.0 15.0 0.00 0.00 0.00 42 1005.1
20260504222522 78 185 3.0 15.0 0.00 0.00 0.00 40 1005.0
20260504221522 78 163 4.0 14.0 0.00 0.00 0.00 39 1005.0
20260504220522 78 157 3.0 17.0 0.00 0.00 0.00 40 1005.4
20260504215521 79 167 3.0 10.0 0.00 0.00 0.00 38 1005.5
20260504214521 79 172 3.0 12.0 0.00 0.00 0.00 39 1005.8